Location: Most
(50.5330°N, 13.6500°E)
Time: 20:17:15
(UTC+02:00)

ISS - Pass Details

Date: 19 May 2021
Orbit: 417 x 422 km, 51.6° (Epoch: 16 June)

Event Time Altitude Azimuth Distance (km) Brightness Sun altitude
Rises 00:29:53 0° 280° (W) 2,369 0.3 -19.4°
Reaches altitude 10° 00:31:59 10° 282° (WNW) 1,505 -0.7 -19.4°
Maximum altitude 00:35:22 80° 9° (N) 433 -3.7 -19.5°
Enters shadow 00:36:27 40° 91° (E) 631 -3.0 -19.5°
